TimeEDT,TemperatureF,Dew PointF,Humidity,Sea Level PressureIn,VisibilityMPH,Wind Direction,Wind SpeedMPH,Gust SpeedMPH,PrecipitationIn,Events,Conditions,WindDirDegrees,DateUTC
12:53 AM,43.0,39.0,86,30.25,10.0,Calm,Calm,-,N/A,,Clear,0,2013-05-27 04:53:00
1:53 AM,43.0,37.0,80,30.26,10.0,Calm,Calm,-,N/A,,Clear,0,2013-05-27 05:53:00
2:53 AM,41.0,37.9,89,30.26,10.0,WNW,3.5,-,N/A,,Clear,300,2013-05-27 06:53:00
3:53 AM,39.9,37.0,89,30.27,10.0,Calm,Calm,-,N/A,,Clear,0,2013-05-27 07:53:00
4:53 AM,39.0,36.0,89,30.27,10.0,Calm,Calm,-,N/A,,Clear,0,2013-05-27 08:53:00
5:53 AM,37.9,35.1,89,30.28,10.0,Calm,Calm,-,N/A,,Clear,0,2013-05-27 09:53:00
6:53 AM,44.1,39.0,82,30.28,10.0,Calm,Calm,-,N/A,,Clear,0,2013-05-27 10:53:00
7:53 AM,52.0,41.0,66,30.29,10.0,Calm,Calm,-,N/A,,Clear,0,2013-05-27 11:53:00
8:53 AM,59.0,39.9,49,30.29,10.0,Calm,Calm,-,N/A,,Clear,0,2013-05-27 12:53:00
9:53 AM,64.0,39.9,41,30.29,10.0,Variable,3.5,-,N/A,,Clear,0,2013-05-27 13:53:00
10:53 AM,64.9,34.0,32,30.28,10.0,SW,6.9,-,N/A,,Clear,230,2013-05-27 14:53:00
11:53 AM,66.9,33.1,28,30.28,10.0,Variable,3.5,-,N/A,,Clear,0,2013-05-27 15:53:00
12:53 PM,68.0,37.0,32,30.26,10.0,WSW,9.2,-,N/A,,Clear,240,2013-05-27 16:53:00
1:53 PM,69.1,37.9,32,30.24,10.0,Variable,4.6,-,N/A,,Clear,0,2013-05-27 17:53:00
2:53 PM,68.0,39.9,36,30.22,10.0,SW,5.8,-,N/A,,Clear,220,2013-05-27 18:53:00
3:53 PM,68.0,41.0,37,30.21,10.0,SW,6.9,-,N/A,,Clear,230,2013-05-27 19:53:00
4:53 PM,66.9,42.1,40,30.20,10.0,WSW,5.8,-,N/A,,Clear,240,2013-05-27 20:53:00
5:53 PM,64.9,39.0,39,30.20,10.0,WSW,8.1,-,N/A,,Clear,250,2013-05-27 21:53:00
6:53 PM,64.0,42.1,45,30.19,10.0,SW,4.6,-,N/A,,Clear,230,2013-05-27 22:53:00
7:53 PM,62.1,43.0,50,30.19,10.0,SW,3.5,-,N/A,,Clear,230,2013-05-27 23:53:00
8:53 PM,57.0,44.1,62,30.19,10.0,Calm,Calm,-,N/A,,Clear,0,2013-05-28 00:53:00
9:53 PM,55.9,45.0,67,30.20,10.0,Calm,Calm,-,N/A,,Clear,0,2013-05-28 01:53:00
10:53 PM,55.0,48.0,77,30.21,10.0,Calm,Calm,-,N/A,,Mostly Cloudy,0,2013-05-28 02:53:00
11:53 PM,57.9,46.0,65,30.21,10.0,Calm,Calm,-,N/A,,Overcast,0,2013-05-28 03:53:00